Location: Atlanta
(33.7490°N, 84.3880°W)
Time: 10:05:18
(UTC-04:00)

Daily predictions for brighter satellites

Satellite Brightness Start Highest point End
(mag) Time Altitude Azimuth Time Altitude Azimuth Time Altitude Azimuth
Cosmos 2344 4.2 20:10:56 10° SW 20:18:33 65° NW 20:26:48 10° NNE
Cosmos 1867 3.6 20:14:55 10° SSW 20:20:17 66° ESE 20:25:41 10° NE
Cosmos 1934 Rocket 4.0 20:14:56 10° S 20:21:05 86° E 20:27:11 10° N
H-2A R/B (2) 2.1 20:19:01 10° WSW 20:21:35 38° S 20:26:13 10° ESE
FENGYUN 3A 3.9 20:17:30 10° SE 20:22:39 47° ENE 20:27:49 10° N
Cosmos 1805 3.5 20:21:50 10° SSE 20:25:34 47° E 20:29:20 10° NNE
Okean 3 Rocket 4.0 20:21:58 10° N 20:26:08 40° E 20:30:18 10° SSE
Cosmos 1812 Rocket 4.5 20:23:34 10° SSW 20:27:53 54° W 20:32:11 10° N
ALOS 2.4 20:24:05 10° SSE 20:28:37 55° ENE 20:33:12 10° N
Cosmos 1833 Rocket 3.8 20:25:31 10° N 20:30:08 25° ENE 20:34:43 10° ESE
Abrixas 3.5 20:31:08 10° NNW 20:33:42 30° NNE 20:35:43 14° E
Cosmos 2278 Rocket 3.4 20:30:46 10° SW 20:36:12 48° WNW 20:41:42 10° N
Tiangong 1 1.9 20:34:49 10° WNW 20:37:36 40° SW 20:40:22 10° SE
RESURS DK-1 3.0 20:33:40 10° NNW 20:37:44 58° WSW 20:41:47 10° S
ATLAS 5 CENTAUR R/B 1.7 20:34:12 10° SSW 20:38:44 62° ESE 20:43:35 10° NE
Delta 2 Rocket 4.4 20:33:53 10° W 20:38:45 47° SSW 20:42:56 11° SE
Cosmos 1125 Rocket 3.4 20:35:10 10° SSW 20:40:21 81° ESE 20:45:34 10° NNE
SeaSat 1 2.7 20:36:42 10° SE 20:41:24 48° ENE 20:46:09 10° NNW
Cosmos 1733 4.3 20:39:02 10° SE 20:42:08 24° E 20:45:15 10° NE
Yuri Rocket 4.3 20:39:19 10° WSW 20:43:21 30° SSW 20:46:41 12° SE
Cosmos 1470 3.7 20:40:20 10° SSE 20:43:43 27° E 20:47:05 10° NNE
GPS 2-05 Rocket1 3.0 20:41:55 10° W 20:45:27 71° N 20:48:14 16° ENE
Cosmos-2242 3.6 20:42:35 10° SSE 20:46:21 32° E 20:50:09 10° NNE
Cosmos 1048 Rocket 4.4 20:42:20 10° N 20:47:08 40° ENE 20:51:39 11° SE
Geosat 4.3 20:42:47 10° NE 20:47:34 43° ESE 20:52:19 10° S
OAO 2 Rocket 4.0 20:42:59 10° SW 20:47:44 38° SSE 20:51:18 17° E
Cosmos 1766 Rocket 4.3 20:44:32 10° NNE 20:48:34 32° E 20:52:21 11° SE
GP-B 3.8 20:46:02 10° SE 20:49:58 32° E 20:53:56 10° NNE
HJ-1C 3.4 20:49:04 10° S 20:52:27 83° WSW 20:55:52 10° NNW
Cosmos 2297 3.9 20:48:44 10° SSW 20:54:25 78° WNW 21:00:11 10° NNE
SJ-6B 3.7 20:51:45 10° S 20:55:21 48° W 20:58:59 10° NNW
USA 186 3.3 20:58:06 12° NNE 20:58:06 12° NNE 20:58:28 10° NNE
H-2A R/B 2.7 20:53:31 10° SSE 20:57:24 75° ENE 21:01:20 10° N
Resurs 01 Rocket 1.5 20:55:09 10° SSE 20:59:32 75° ENE 21:03:57 10° N
Cosmos 1340 Rocket 3.8 20:58:38 10° NNE 21:01:59 25° ENE 21:02:27 25° E
ISS -2.0 21:06:21 10° WSW 21:09:18 31° NW 21:12:16 10° NNE
Cosmos 2082 Rocket 2.2 21:04:57 10° NNW 21:10:36 64° ENE 21:14:42 19° SE
Cosmos 2100 Rocket 4.0 21:06:27 10° S 21:12:38 63° E 21:18:54 10° NNE
Meteor 1-29 3.1 21:12:34 10° NNE 21:15:57 47° E 21:16:42 40° SE
SAR-Lupe-4 3.6 21:16:30 42° ESE 21:17:19 54° ENE 21:20:50 10° N
Cosmos 1743 Rocket 4.3 21:15:43 10° NNE 21:19:40 33° ENE 21:19:40 33° ENE
Cosmos 1271 Rocket 2.8 21:18:54 10° S 21:22:54 83° W 21:26:57 10° N
Delta 128 4.3 21:19:27 10° WSW 21:23:41 38° S 21:24:46 32° SSE
COSMOS 2487 2.5 21:21:55 10° NNW 21:25:29 77° WSW 21:26:45 38° S
Aurora 2 Rocket 4.1 21:20:01 10° WSW 21:26:57 38° S 21:28:57 29° SE
H-2A R/B 3.9 21:22:32 10° WSW 21:28:02 68° S 22:26:48 10° E
H-2A R/B 3.9 21:22:32 10° WSW 21:28:03 68° S 22:26:48 10° E
H-2A R/B 3.9 21:22:33 10° WSW 21:28:03 68° S 22:26:48 10° E
Cosmos 2251 Rocket 4.5 21:24:05 10° N 21:28:42 29° ENE 21:28:42 29° ENE
Cosmos 1953 4.3 21:27:02 10° SW 21:30:38 30° W 21:34:15 10° NNW
Cosmos 1818 4.1 21:25:45 10° NW 21:31:04 57° WSW 21:35:03 17° S
Cosmos 1269 Rocket 4.2 21:26:02 10° NNW 21:31:18 73° WSW 21:35:23 17° S
Cosmos 1674 3.0 21:30:40 10° NNW 21:34:25 66° W 21:36:15 28° S
Cosmos 158 Rocket 4.0 21:30:48 10° NNW 21:35:59 80° WSW 21:39:05 25° S
SAR-Lupe-1 3.9 21:36:02 85° E 21:36:03 85° E 21:39:38 10° N
Cosmos 1802 Rocket 3.8 21:30:20 10° S 21:36:26 77° E 21:42:35 10° N
USA 215 3.1 21:31:17 10° NE 21:37:46 66° SE 21:44:13 10° SSW
Cosmos 1408 Rocket 4.0 21:35:02 10° NNW 21:39:27 61° W 21:42:45 17° S
Cosmos 1939 Rocket 3.5 21:42:57 43° NNE 21:42:57 43° NNE 21:46:07 10° N
Helios 1B rocket 3.3 21:41:52 10° N 21:45:52 50° WNW 21:49:50 10° SSW
SJ-11-01 4.1 21:48:15 70° E 21:48:23 70° ENE 21:53:06 10° N
Cosmos 1842 Rocket 3.5 21:50:28 74° NNE 21:50:28 74° NNE 21:54:31 10° N
Cosmos 2061 Rocket 4.3 21:47:22 10° SSW 21:53:43 70° W 22:00:09 10° N
Lacrosse 5 rocket 2.3 21:51:36 10° NNW 21:54:09 37° NNW 21:54:09 37° NNW
Cosmos 2369 Rocket 4.4 22:01:47 12° NNE 22:01:47 12° NNE 22:02:10 10° NNE
Cosmos 494 Rocket 4.3 21:54:51 10° N 21:59:01 50° NNE 21:59:01 50° NNE
Timation 2 Rocket 4.3 21:57:47 10° NNW 22:03:52 58° WSW 22:06:20 34° S
Helios 1A 4.2 22:02:56 32° SW 22:04:02 38° W 22:07:57 10° NNW
Gblst 52 Del rocket 4.4 21:59:17 10° SW 22:05:20 68° NW 22:07:37 36° NNE
Envisat 3.2 22:08:43 57° SW 22:09:26 65° W 22:14:29 10° NNW
Cosmos 1864 Rocket 4.4 22:11:35 63° S 22:12:42 85° E 22:19:02 10° N
Cosmos 1833 Rocket 3.9 22:08:58 10° NW 22:14:04 37° WSW 22:16:33 25° SSW
ERS-1 Rocket 3.8 22:23:15 44° N 22:23:15 44° N 22:26:41 10° NNW
H-2A R/B 4.4 22:31:01 14° NNE 22:31:01 14° NNE 22:31:50 10° NNE
CZ-3 Stage 3 3.1 22:14:52 10° W 22:37:42 67° SSW 22:37:49 66° SSW
